Mobridge, SD

5:21 PM CST on December 14, 2017 (GMT -0600)
Mobridge Municipal

Weather History for KMBG - October, 2012

Change the Weather History Date:

Saturday, October 13, 2012

  Actual Average Record
Temperature  
Mean Temperature 54 °F 48 °F  
Max Temperature 75 °F 61 °F 89 °F (1958)
Min Temperature 33 °F 36 °F 20 °F (1937)
Degree Days  
Heating Degree Days 11 17  
Month to date heating degree days 250 185  
Since 1 July heating degree days 402 405  
Cooling Degree Days 0 0  
Month to date cooling degree days 0 0  
Year to date cooling degree days 866 641  
Growing Degree Days 3 (Base 50)    
Moisture  
Dew Point 35 °F    
Average Humidity 61    
Maximum Humidity 100    
Minimum Humidity 22    
Precipitation  
Precipitation 0.00 in 0.05 in 0.20 in (1940)
Month to date precipitation 0.13 0.67  
Year to date precipitation 12.54 16.12  
Snow  
Snow 0.00 in - - ()
Month to date snowfall T  
Since 1 July snowfall T  
Snow Depth 0.00 in    
Sea Level Pressure  
Sea Level Pressure 29.73 in    
Wind  
Wind Speed 8 mph (North)    
Max Wind Speed 22 mph    
Max Gust Speed 28 mph    
Visibility 10 miles    
Events      
T = Trace of Precipitation, MM = Missing Value Source: NWS Daily Summary

Daily Weather History Graph

Daily Weather History Graph

Search for Another Location

Airport or City:

Trip Planner

Search our weather history database for the weather conditions in past years. The results will help you decide how hot, cold, wet, or windy it might be!

Date:

Astronomy

Oct. 13, 2012 Rise Set
Actual Time 7:56 AM CDT 6:58 PM CDT
Civil Twilight 7:26 AM CDT 7:28 PM CDT
Nautical Twilight 6:51 AM CDT 8:02 PM CDT
Astronomical Twilight 6:17 AM CDT 8:37 PM CDT
Moon 5:43 AM CDT (10/13) 5:46 PM CDT (10/13)
Length of Visible Light 12h 02m
Length of Day
11h 02m
Waning Crescent, 5% of the Moon is Illuminated
Oct 13
Waning Crescent
Oct 15
New
Oct 21
First Quarter
Oct 29
Full
Nov 6
Last Quarter

Hourly Weather History & Observations

Time (CDT) Temp. Windchill Dew Point Humidity Pressure Visibility Wind Dir Wind Speed Gust Speed Precip Events Conditions
1:52 AM 44.1 °F 39.5 °F 36.0 °F 73% 29.68 in 10.0 mi SE 8.1 mph - N/A   Clear
2:52 AM 41.0 °F 37.1 °F 36.0 °F 82% 29.68 in 10.0 mi SE 5.8 mph - N/A   Clear
3:52 AM 39.9 °F 36.7 °F 36.0 °F 86% 29.65 in 10.0 mi ESE 4.6 mph - N/A   Clear
4:52 AM 37.0 °F 31.6 °F 34.0 °F 89% 29.64 in 10.0 mi SE 6.9 mph - N/A   Clear
5:52 AM 36.0 °F 30.3 °F 34.0 °F 93% 29.66 in 10.0 mi SE 6.9 mph - N/A   Clear
6:52 AM 36.0 °F - 35.1 °F 97% 29.68 in 10.0 mi Calm Calm - N/A   Clear
7:52 AM 33.1 °F 27.7 °F 32.0 °F 96% 29.68 in 10.0 mi NNW 5.8 mph - N/A   Clear
8:52 AM 37.9 °F - 37.0 °F 97% 29.69 in 7.0 mi Calm Calm - N/A   Clear
9:52 AM 43.0 °F 38.8 °F 37.0 °F 80% 29.70 in 10.0 mi WNW 6.9 mph - N/A   Clear
10:52 AM 48.9 °F - 37.0 °F 64% 29.70 in 10.0 mi West 3.5 mph - N/A   Clear
11:52 AM 55.0 °F - 37.0 °F 51% 29.70 in 10.0 mi NNW 5.8 mph - N/A   Clear
12:52 PM 64.9 °F - 37.0 °F 36% 29.69 in 10.0 mi North 9.2 mph - N/A   Clear
1:52 PM 69.1 °F - 36.0 °F 30% 29.68 in 10.0 mi North 8.1 mph - N/A   Clear
2:52 PM 72.0 °F - 34.0 °F 25% 29.68 in 10.0 mi North 12.7 mph 18.4 mph N/A   Clear
3:52 PM 73.9 °F - 32.0 °F 21% 29.68 in 10.0 mi NNW 13.8 mph 23.0 mph N/A   Clear
4:52 PM 73.9 °F - 32.0 °F 21% 29.70 in 10.0 mi NNW 17.3 mph 25.3 mph N/A   Clear
5:52 PM 71.1 °F - 32.0 °F 24% 29.73 in 10.0 mi NNW 19.6 mph 26.5 mph N/A   Clear
6:52 PM 64.0 °F - 35.1 °F 34% 29.77 in 10.0 mi North 13.8 mph - N/A   Clear
7:52 PM 57.0 °F - 35.1 °F 44% 29.82 in 10.0 mi NNW 10.4 mph - N/A   Clear
8:52 PM 51.1 °F - 34.0 °F 52% 29.86 in 10.0 mi NNW 3.5 mph - N/A   Clear
9:52 PM 46.9 °F - 35.1 °F 63% 29.87 in 10.0 mi North 5.8 mph - N/A   Clear
10:52 PM 46.9 °F - 37.0 °F 68% 29.89 in 10.0 mi NW 6.9 mph - N/A   Clear
11:52 PM 43.0 °F 38.8 °F 36.0 °F 76% 29.90 in 10.0 mi North 6.9 mph - N/A   Partly Cloudy